Albany, OH

2:43 PM EST on January 18, 2017 (GMT -0500)
Ohio University

Weather History for KUNI - December, 2013

Change the Weather History Date:

Thursday, December 12, 2013

  Actual Average (KLHQ) Record (KLHQ)
Temperature  
Mean Temperature 20 °F -  
Max Temperature 26 °F 40 °F 69 °F (2015)
Min Temperature 14 °F 24 °F -7 °F (1962)
Degree Days  
Heating Degree Days 45    
Moisture  
Dew Point 8 °F    
Average Humidity 60    
Maximum Humidity 87    
Minimum Humidity 34    
Precipitation  
Precipitation 0.00 in - - ()
Sea Level Pressure  
Sea Level Pressure 30.44 in    
Wind  
Wind Speed 6 mph (WSW)    
Max Wind Speed 14 mph    
Max Gust Speed 21 mph    
Visibility 10 miles    
Events Snow    
Averages and records for this station are not official NWS values.
T = Trace of Precipitation, MM = Missing Value Source: NWS Daily Summary

Daily Weather History Graph

Daily Weather History Graph

Search for Another Location

Airport or City:

Trip Planner

Search our weather history database for the weather conditions in past years. The results will help you decide how hot, cold, wet, or windy it might be!

Date:

Astronomy

Dec. 12, 2013 Rise Set
Actual Time 7:39 AM EST 5:06 PM EST
Civil Twilight 7:09 AM EST 5:36 PM EST
Nautical Twilight 6:35 AM EST 6:09 PM EST
Astronomical Twilight 6:03 AM EST 6:42 PM EST
Moon 2:11 PM EST (12/12) 3:02 AM EST (12/12)
Length of Visible Light 10h 27m
Length of Day
9h 27m
Waxing Gibbous, 80% of the Moon is Illuminated
Dec 12
Waxing Gibbous
Dec 17
Full
Dec 25
Last Quarter
Jan 1
New
Jan 7
First Quarter

Hourly Weather History & Observations

Time (EST) Temp. Windchill Dew Point Humidity Pressure Visibility Wind Dir Wind Speed Gust Speed Precip Events Conditions
12:15 AM 21.2 °F 11.7 °F 13.3 °F 72% 30.46 in 10.0 mi WNW 8.1 mph - N/A   Clear
12:35 AM 21.0 °F 12.4 °F 12.4 °F 69% 30.46 in 10.0 mi WNW 6.9 mph - N/A   Clear
12:55 AM 20.1 °F 15.2 °F 12.2 °F 71% 30.45 in 10.0 mi WNW 3.5 mph - N/A   Clear
1:15 AM 19.9 °F 13.4 °F 12.2 °F 72% 30.45 in 10.0 mi WNW 4.6 mph - N/A   Clear
1:35 AM 19.2 °F 12.5 °F 12.2 °F 74% 30.45 in 10.0 mi WNW 4.6 mph - N/A   Clear
1:55 AM 19.0 °F 11.1 °F 12.2 °F 75% 30.45 in 10.0 mi WNW 5.8 mph - N/A   Clear
2:15 AM 18.7 °F 10.6 °F 11.8 °F 75% 30.46 in 10.0 mi West 5.8 mph - N/A   Clear
2:35 AM 18.3 °F 9.1 °F 12.2 °F 77% 30.47 in 10.0 mi WNW 6.9 mph - N/A   Clear
2:55 AM 18.3 °F 11.5 °F 12.0 °F 76% 30.47 in 10.0 mi West 4.6 mph - N/A   Clear
3:15 AM 18.0 °F 12.7 °F 12.2 °F 78% 30.47 in 10.0 mi West 3.5 mph - N/A   Clear
3:35 AM 17.6 °F 9.3 °F 12.4 °F 80% 30.48 in 10.0 mi West 5.8 mph - N/A   Clear
3:55 AM 17.6 °F 9.3 °F 12.9 °F 82% 30.48 in 10.0 mi WSW 5.8 mph - N/A   Scattered Clouds
4:15 AM 18.0 °F 12.7 °F 13.1 °F 81% 30.47 in 10.0 mi West 3.5 mph - N/A   Overcast
4:35 AM 18.3 °F 10.2 °F 13.3 °F 81% 30.48 in 10.0 mi West 5.8 mph - N/A   Overcast
4:55 AM 18.5 °F 10.4 °F 13.5 °F 81% 30.48 in 10.0 mi West 5.8 mph - N/A   Overcast
5:15 AM 18.3 °F 11.5 °F 13.5 °F 81% 30.48 in 10.0 mi West 4.6 mph - N/A Snow Light Snow
5:35 AM 18.0 °F 12.7 °F 13.1 °F 81% 30.48 in 10.0 mi West 3.5 mph - N/A Snow Light Snow
5:55 AM 18.0 °F 12.7 °F 13.5 °F 83% 30.48 in 10.0 mi West 3.5 mph - N/A   Mostly Cloudy
6:15 AM 17.8 °F 12.5 °F 13.1 °F 82% 30.49 in 10.0 mi West 3.5 mph - N/A   Mostly Cloudy
6:35 AM 17.6 °F 10.7 °F 13.1 °F 83% 30.49 in 10.0 mi West 4.6 mph - N/A Snow Light Snow
6:55 AM 17.4 °F 12.1 °F 12.7 °F 82% 30.50 in 10.0 mi WSW 3.5 mph - N/A   Overcast
7:15 AM 16.3 °F 10.8 °F 12.0 °F 83% 30.51 in 10.0 mi WSW 3.5 mph - N/A   Mostly Cloudy
7:35 AM 14.9 °F 9.2 °F 11.1 °F 85% 30.51 in 10.0 mi West 3.5 mph - N/A   Scattered Clouds
7:55 AM 14.9 °F - 11.3 °F 86% 30.51 in 10.0 mi Calm Calm - N/A   Clear
8:15 AM 14.9 °F - 11.7 °F 87% 30.51 in 10.0 mi Calm Calm - N/A   Clear
8:35 AM 16.9 °F - 12.4 °F 82% 30.52 in 10.0 mi Calm Calm - N/A   Scattered Clouds
8:55 AM 17.2 °F 11.9 °F 12.2 °F 81% 30.53 in 10.0 mi SW 3.5 mph - N/A   Scattered Clouds
9:15 AM 18.0 °F 7.7 °F 10.2 °F 72% 30.53 in 10.0 mi West 8.1 mph - N/A   Clear
9:35 AM 18.3 °F 10.2 °F 9.5 °F 68% 30.53 in 10.0 mi SW 5.8 mph - N/A   Clear
9:55 AM 18.5 °F 9.3 °F 9.7 °F 68% 30.52 in 10.0 mi West 6.9 mph - N/A   Scattered Clouds
10:15 AM 19.0 °F 10.0 °F 9.3 °F 66% 30.52 in 10.0 mi SW 6.9 mph - N/A   Scattered Clouds
10:35 AM 19.9 °F 11.1 °F 9.7 °F 64% 30.52 in 10.0 mi WSW 6.9 mph - N/A   Clear
10:55 AM 20.7 °F 13.0 °F 9.5 °F 62% 30.51 in 10.0 mi SW 5.8 mph - N/A   Scattered Clouds
11:15 AM 21.0 °F 14.6 °F 9.3 °F 61% 30.50 in 10.0 mi West 4.6 mph - N/A   Scattered Clouds
11:35 AM 22.1 °F 12.8 °F 8.4 °F 56% 30.49 in 10.0 mi WSW 8.1 mph - N/A   Clear
11:55 AM 22.5 °F 15.1 °F 7.5 °F 53% 30.49 in 10.0 mi SW 5.8 mph - N/A   Clear
12:15 PM 24.1 °F 13.7 °F 7.9 °F 50% 30.48 in 10.0 mi SW 10.4 mph - N/A   Clear
12:35 PM 23.9 °F 13.5 °F 7.0 °F 49% 30.46 in 10.0 mi WSW 10.4 mph - N/A   Clear
12:55 PM 24.3 °F 13.3 °F 6.1 °F 46% 30.45 in 10.0 mi West 11.5 mph - N/A   Clear
1:15 PM 24.8 °F 14.6 °F 4.6 °F 42% 30.44 in 10.0 mi WSW 10.4 mph 16.1 mph N/A   Clear
1:35 PM 25.2 °F 13.3 °F 4.8 °F 42% 30.44 in 10.0 mi West 13.8 mph - N/A   Clear
1:55 PM 25.5 °F 16.2 °F 3.9 °F 40% 30.43 in 10.0 mi WSW 9.2 mph - N/A   Clear
2:15 PM 25.3 °F 14.7 °F 1.0 °F 35% 30.43 in 10.0 mi West 11.5 mph 18.4 mph N/A   Clear
2:35 PM 25.7 °F 15.7 °F 1.2 °F 35% 30.42 in 10.0 mi WSW 10.4 mph 20.7 mph N/A   Clear
2:55 PM 25.9 °F 16.6 °F 1.4 °F 35% 30.41 in 10.0 mi WSW 9.2 mph - N/A   Clear
3:15 PM 26.2 °F 16.4 °F 1.8 °F 35% 30.41 in 10.0 mi WSW 10.4 mph - N/A   Clear
3:35 PM 26.6 °F 18.2 °F 2.3 °F 35% 30.41 in 10.0 mi SW 8.1 mph - N/A   Clear
3:55 PM 26.2 °F 17.1 °F 1.0 °F 34% 30.42 in 10.0 mi WSW 9.2 mph - N/A   Clear
4:15 PM 26.4 °F 16.6 °F 2.3 °F 36% 30.42 in 10.0 mi SW 10.4 mph - N/A   Clear
4:35 PM 25.7 °F 15.7 °F 1.4 °F 35% 30.41 in 10.0 mi SW 10.4 mph - N/A   Clear
4:55 PM 25.2 °F 17.3 °F 1.9 °F 37% 30.40 in 10.0 mi SW 6.9 mph - N/A   Clear
5:15 PM 24.3 °F 17.3 °F 2.3 °F 39% 30.39 in 10.0 mi SW 5.8 mph - N/A   Clear
5:35 PM 23.9 °F 18.0 °F 2.7 °F 40% 30.39 in 10.0 mi SW 4.6 mph - N/A   Clear
5:55 PM 23.5 °F 17.6 °F 2.5 °F 40% 30.38 in 10.0 mi SW 4.6 mph - N/A   Clear
6:15 PM 23.7 °F 17.8 °F 2.1 °F 39% 30.38 in 10.0 mi SW 4.6 mph - N/A   Clear
6:35 PM 23.4 °F 16.2 °F 2.8 °F 41% 30.37 in 10.0 mi SW 5.8 mph - N/A   Clear
6:55 PM 23.5 °F 14.5 °F 3.0 °F 41% 30.37 in 10.0 mi SW 8.1 mph - N/A   Clear
7:15 PM 23.4 °F 14.3 °F 3.6 °F 43% 30.37 in 10.0 mi SW 8.1 mph - N/A   Clear
7:35 PM 23.0 °F 15.8 °F 3.9 °F 44% 30.36 in 10.0 mi SW 5.8 mph - N/A   Clear
7:55 PM 22.6 °F 16.5 °F 3.7 °F 44% 30.36 in 10.0 mi SW 4.6 mph - N/A   Clear
8:15 PM 22.5 °F 15.1 °F 3.7 °F 45% 30.35 in 10.0 mi SW 5.8 mph - N/A   Clear
8:35 PM 22.5 °F 15.1 °F 3.9 °F 45% 30.35 in 10.0 mi SW 5.8 mph - N/A   Clear
8:55 PM 22.1 °F 15.9 °F 4.3 °F 46% 30.35 in 10.0 mi SW 4.6 mph - N/A   Clear
9:15 PM 21.7 °F 15.5 °F 4.6 °F 48% 30.34 in 10.0 mi SSW 4.6 mph - N/A   Clear
9:35 PM 21.7 °F 17.0 °F 4.8 °F 48% 30.34 in 10.0 mi SSW 3.5 mph - N/A   Clear
9:55 PM 21.9 °F - 4.8 °F 48% 30.34 in 10.0 mi Calm Calm - N/A   Clear
10:15 PM 21.2 °F - 5.5 °F 51% 30.33 in 10.0 mi Calm Calm - N/A   Clear
10:35 PM 20.8 °F - 6.4 °F 54% 30.33 in 10.0 mi Calm Calm - N/A   Clear
10:55 PM 20.7 °F 15.8 °F 6.3 °F 54% 30.33 in 10.0 mi SSW 3.5 mph - N/A   Clear
11:15 PM 20.3 °F - 6.6 °F 56% 30.32 in 10.0 mi Calm Calm - N/A   Clear
11:35 PM 18.1 °F - 8.8 °F 67% 30.33 in 10.0 mi Calm Calm - N/A   Clear
11:55 PM 17.2 °F - 9.7 °F 72% 30.32 in 10.0 mi Calm Calm - N/A   Clear